Terminal Aerodrome Forecast
Issued by NWS

Home | Current Version | Previous Version | Text Only | Print | Product List | Glossary On
Versions: 1 2 3 4 5 6 7 8 9 10 11 12 13 14 15 16 17 18 19 20 21 22 23 24 25 26 27 28 29 30 31 32 33 34 35 36 37 38 39 40 41 42 43 44 45 46 47 48 49 50
000
FTUS45 KBOU 251125
TAFBJC
TAF
KBJC 251125Z 2512/2612 27024G38KT P6SM FEW120 BKN200
     FM251600 28030G50KT P6SM FEW100 BKN150
     FM252200 29025G42KT P6SM FEW090 BKN140
     FM260200 29025G35KT P6SM FEW090 BKN140
     FM260400 27017G28KT P6SM SCT070 BKN140
     FM260600 04008KT P6SM FEW020 BKN070=

USA.gov is the U.S. government's official web portal to all federal, state and local government web resources and services.